Glasgow, United Kingdom

10:14 PM BST on June 28, 2017 (GMT +0100)
Glasgow

Weather History for EGPF - September, 2013

Change the Weather History Date:

Sunday, September 15, 2013

  Actual Average Record
Temperature  
Mean Temperature 50 °F -  
Max Temperature 59 °F 56 °F 69 °F (2016)
Min Temperature 41 °F 44 °F 35 °F (2007)
Degree Days  
Heating Degree Days 15    
Moisture  
Dew Point 47 °F    
Average Humidity 86    
Maximum Humidity 100    
Minimum Humidity 67    
Precipitation  
Precipitation 0.00 in - - ()
Sea Level Pressure  
Sea Level Pressure 29.42 in    
Wind  
Wind Speed 14 mph ()    
Max Wind Speed 30 mph    
Max Gust Speed 43 mph    
Visibility 5.7 miles    
Events Rain    
Averages and records for this station are not official NWS values.
T = Trace of Precipitation, MM = Missing Value Source: Averaged Metar Reports

Daily Weather History Graph

Daily Weather History Graph

Search for Another Location

Airport or City:

Trip Planner

Search our weather history database for the weather conditions in past years. The results will help you decide how hot, cold, wet, or windy it might be!

Date:

Astronomy

Sep. 15, 2013 Rise Set
Actual Time 6:49 AM BST 7:34 PM BST
Civil Twilight 6:12 AM BST 8:12 PM BST
Nautical Twilight 5:26 AM BST 8:57 PM BST
Astronomical Twilight 4:37 AM BST 9:46 PM BST
Moon 5:24 PM BST (9/15) 1:31 AM BST (9/15)
Length of Visible Light 14h 00m
Length of Day
12h 45m
Waxing Gibbous, 80% of the Moon is Illuminated
Sep 15
Waxing Gibbous
Sep 19
Full
Sep 27
Last Quarter
Oct 5
New
Oct 12
First Quarter

Hourly Weather History & Observations

Time (BST) Temp. Windchill Dew Point Humidity Pressure Visibility Wind Dir Wind Speed Gust Speed Precip Events Conditions
12:20 AM 50.0 °F - 48.2 °F 94% 29.92 in 6.2 mi SSW 9.2 mph - N/A   Partly Cloudy
12:50 AM 51.8 °F - 46.4 °F 82% 29.89 in 6.2 mi South 9.2 mph - N/A   Scattered Clouds
1:20 AM 50.0 °F - 44.6 °F 82% 29.86 in 6.2 mi SSE 4.6 mph - N/A   Scattered Clouds
1:50 AM 48.2 °F - 44.6 °F 87% 29.83 in 6.2 mi NE 4.6 mph - N/A   Partly Cloudy
2:20 AM 50.0 °F - 46.4 °F 87% 29.80 in 6.2 mi Variable 3.5 mph - N/A   Partly Cloudy
2:50 AM 53.6 °F - 48.2 °F 82% 29.77 in 6.2 mi SSW 17.3 mph - N/A   Unknown
3:20 AM 53.6 °F - 48.2 °F 82% 29.74 in 6.2 mi SSW 19.6 mph - N/A Rain Light Rain
3:50 AM 53.6 °F - 48.2 °F 82% 29.71 in 6.2 mi SSW 18.4 mph - N/A Rain Light Rain
4:20 AM 53.6 °F - 48.2 °F 82% 29.68 in 6.2 mi SSW 13.8 mph - N/A Rain Light Rain
4:50 AM 51.8 °F - 48.2 °F 88% 29.65 in 6.2 mi SSW 17.3 mph - N/A Rain Light Rain
5:20 AM 51.8 °F - 48.2 °F 88% 29.59 in 5.6 mi SSW 18.4 mph - N/A Rain Rain
5:50 AM 50.0 °F - 48.2 °F 94% 29.56 in 5.0 mi SSW 18.4 mph - N/A Rain Rain
6:20 AM 51.8 °F - 48.2 °F 88% 29.50 in 5.6 mi SSW 18.4 mph 31.1 mph N/A Rain Light Rain
6:50 AM 51.8 °F - 50.0 °F 94% 29.47 in 6.2 mi SW 20.7 mph - N/A   Overcast
7:20 AM 51.8 °F - 50.0 °F 94% 29.44 in 2.2 mi SSW 25.3 mph 36.8 mph N/A Rain Rain
7:50 AM 53.6 °F - 51.8 °F 94% 29.42 in 3.1 mi SSW 26.5 mph - N/A Rain Light Rain
8:20 AM 53.6 °F - 51.8 °F 94% 29.39 in 3.1 mi SSW 24.2 mph - N/A Rain Light Rain
8:50 AM 53.6 °F - 51.8 °F 94% 29.36 in - SSW 25.3 mph - N/A Rain Rain
9:20 AM 55.4 °F - 53.6 °F 94% 29.33 in 3.1 mi SSW 27.6 mph - N/A Rain Light Rain
9:50 AM 55.4 °F - 53.6 °F 94% 29.30 in - SSW 26.5 mph - N/A Rain Rain
10:20 AM 55.4 °F - 53.6 °F 94% 29.27 in - SW 25.3 mph - N/A Rain Rain
10:50 AM 57.2 °F - 55.4 °F 94% 29.24 in - SW 23.0 mph - N/A Rain Rain
11:20 AM 57.2 °F - 57.2 °F 100% 29.24 in 3.1 mi SW 21.9 mph - N/A Rain Light Rain
11:50 AM 59.0 °F - 57.2 °F 94% 29.21 in - WSW 19.6 mph - N/A Rain Light Rain
12:20 PM 57.2 °F - 53.6 °F 88% 29.24 in 5.6 mi West 19.6 mph - N/A Rain Light Rain
12:50 PM 57.2 °F - 53.6 °F 88% 29.21 in 6.2 mi WSW 20.7 mph - N/A   Scattered Clouds
1:20 PM 59.0 °F - 50.0 °F 72% 29.21 in 5.6 mi West 29.9 mph 42.6 mph N/A   Scattered Clouds
1:50 PM 55.4 °F - 48.2 °F 77% 29.27 in 6.2 mi West 24.2 mph - N/A Rain Light Rain
2:20 PM 55.4 °F - 46.4 °F 72% 29.27 in 6.2 mi West 20.7 mph - N/A   Mostly Cloudy
2:50 PM 55.4 °F - 44.6 °F 67% 29.27 in 6.2 mi West 23.0 mph 35.7 mph N/A   Scattered Clouds
3:20 PM 53.6 °F - 42.8 °F 67% 29.27 in 6.2 mi West 23.0 mph 36.8 mph N/A   Scattered Clouds
3:50 PM 50.0 °F - 42.8 °F 76% 29.27 in 6.2 mi West 18.4 mph - N/A   Mostly Cloudy
4:20 PM 50.0 °F - 44.6 °F 82% 29.30 in 6.2 mi West 20.7 mph - N/A Rain Light Rain
4:50 PM 50.0 °F - 46.4 °F 87% 29.30 in 6.2 mi West 19.6 mph 33.4 mph N/A   Mostly Cloudy
5:20 PM 48.2 °F - 42.8 °F 82% 29.33 in 5.0 mi WNW 18.4 mph 32.2 mph N/A Rain Light Rain Showers
5:50 PM 48.2 °F - 42.8 °F 82% 29.33 in 6.2 mi WNW 10.4 mph - N/A   Mostly Cloudy
6:20 PM 46.4 °F 40.7 °F 42.8 °F 87% 29.33 in 6.2 mi WSW 12.7 mph - N/A Rain Light Rain
6:50 PM 46.4 °F 42.4 °F 42.8 °F 87% 29.33 in 6.2 mi WSW 8.1 mph - N/A   Mostly Cloudy
7:20 PM 46.4 °F 40.7 °F 42.8 °F 87% 29.33 in 6.2 mi WSW 12.7 mph - N/A   Mostly Cloudy
7:50 PM 46.4 °F 40.1 °F 42.8 °F 87% 29.33 in 6.2 mi West 15.0 mph - N/A Rain Light Rain Showers
8:20 PM 44.6 °F 39.7 °F 41.0 °F 87% 29.33 in 6.2 mi WSW 9.2 mph - N/A Rain Light Rain
8:50 PM 42.8 °F 37.5 °F 41.0 °F 93% 29.33 in 6.2 mi WSW 9.2 mph - N/A   Scattered Clouds
9:20 PM 44.6 °F 38.1 °F 42.8 °F 93% 29.33 in 6.2 mi WSW 13.8 mph - N/A   Scattered Clouds
9:50 PM 44.6 °F 38.4 °F 41.0 °F 87% 29.33 in 6.2 mi West 12.7 mph - N/A   Scattered Clouds
10:20 PM 42.8 °F 37.5 °F 39.2 °F 87% 29.30 in 6.2 mi WSW 9.2 mph - N/A   Partly Cloudy
10:50 PM 44.6 °F 38.8 °F 39.2 °F 81% 29.30 in 6.2 mi WSW 11.5 mph - N/A   Scattered Clouds
11:20 PM 41.0 °F 35.2 °F 37.4 °F 87% 29.30 in - WSW 9.2 mph - N/A   Clear
11:50 PM 44.6 °F 37.4 °F 41.0 °F 87% 29.30 in 6.2 mi WSW 16.1 mph - N/A Rain Light Rain